Location: Myrnam
(53.6612°N, 111.2289°W)
Time: 13:12:54
(UTC+00:00)

SO-50 - Pass Details

Date: 10 December 2023
Orbit: 607 x 661 km, 64.6° (Epoch: 21 February)

Event Time Altitude Azimuth Distance (km) Brightness Sun altitude
Exits shadow 11:38:57 17° 32° (NNE) 1,627 ? -32.8°
Drops below altitude 10° 11:40:08 10° 39° (NE) 2,039 ? -32.6°
Sets 11:42:33 0° 48° (NE) 2,940 ? -32.2°
